Zurück zum Katalog

DELTA 1 DEB

AktivSSO
NORAD 18671·DEBRIS·🇺🇸 United States

Gestartet Nov 6, 1973 von Vandenberg Space Force Base

Loading…

Nächste Überflüge (nächste 24 Stunden)

TLE

AktuellSource: Space-Track

Epoche: Sep 12, 2026, 09:03 UTC

1 18671U 73086GZ  26255.37742718  .00000098  00000-0  10459-2 0  9994
2 18671 101.8570 208.6562 0110009 212.1796 300.9569 12.39899229647233

Verfolge DELTA 1 DEB in Echtzeit mit AllMySat

Download on the App Store